Location: Home
(42.5358°N, 72.7383°W)
Time: 11:59:46
(UTC-05:00)

Explorer 7 - Pass Details

Date: 02 December 2021
Orbit: 483 x 674 km, 50.3° (Epoch: 20 January)

Event Time Altitude Azimuth Distance (km) Brightness Sun altitude
Rises 09:54:18 0° 297° (WNW) 2,666 9.9 20.9°
Reaches altitude 10° 09:56:46 10° 309° (NW) 1,745 8.9 21.1°
Maximum altitude 10:00:15 29° 11° (N) 937 7.8 21.4°
Drops below altitude 10° 10:03:37 10° 74° (ENE) 1,681 9.5 21.7°
Sets 10:05:57 0° 86° (E) 2,549 10.5 21.8°
